カタログに戻る

STARLINK-37934

運用中通信SSO
NORAD 69567·PAYLOAD·🇺🇸 United States

打ち上げ Jun 15, 2026 から Vandenberg Space Force Base

Loading…

次のパス (今後24時間)

TLE

最新Source: CelesTrak SupGP

元期: Sep 15, 2026, 02:59 UTC

1 69567C 26135X   26258.12479167 -.00030219  00000+0 -93782-3 0  2586
2 69567  97.2839 285.9478 0001336 107.3700 132.6289 15.33463341    12

AllMySatでSTARLINK-37934をリアルタイム追跡

Download on the App Store